Location: Cieszkowy
(50.3290°N, 20.5336°E)
Time: 22:52:07
(UTC+00:00)

Cosmos 1606 - Pass Details

Date: 15 June 2024
Orbit: 456 x 469 km, 82.5° (Epoch: 17 July)

Event Time Altitude Azimuth Distance (km) Brightness Sun altitude
Rises 00:50:59 0° 340° (NNW) 2,532 6.8 -10.7°
Reaches altitude 10° 00:53:16 10° 328° (NNW) 1,652 5.6 -10.5°
Maximum altitude 00:56:22 27° 269° (W) 940 3.7 -10.3°
Enters shadow 00:58:40 15° 218° (SW) 1,379 4.2 -10.1°
